Address 0xf6436829cf96ea0f8bc49d300c536fcc4f84c4ed

Txn Hash Method
Block
From
To
Value [Txn Fee]
0x3222faf6489f5dabb2710a668511e4daa9f152e81a0baad190e690ec52d4b48eTransfer152923572022-09-25 18:16:0019 mins ago0xf6436829cf96ea0f8bc49d300c536fcc4f84c4edOUT0xbef2c831f158144427174b5d4235a41abe22d00a1 CELO0.0000105
0xaaa5d0353ecf1fe1835d50248cbf88fc127de98ff106ae49fe7551be18cfcf4eTransfer152923272022-09-25 18:13:3022 mins ago0xf6436829cf96ea0f8bc49d300c536fcc4f84c4edOUT0xa2abeb4377cffc9071ec1c7f1d1656def12d8a1412.699 CELO0.0000105
0xf41fbe1bd5699365b41d4a029a52cb9188f8546eed9255566bc6d4e07baf6153Transfer152922362022-09-25 18:05:5529 mins ago0xf6436829cf96ea0f8bc49d300c536fcc4f84c4edOUT0x6aa4c10ddba2bbbbfaa742c31b531cefd3062c4112.70108656 CELO0.0000105
0xcca8e889c8746d01b5565643a1179f43d8a32b5ad723cde66d9617b2beb6f7b8Transfer*152921662022-09-25 18:00:0535 mins ago0x9bce07fe4afca2acae6cd757d27e0d67d16f6f66 IN 0xf6436829cf96ea0f8bc49d300c536fcc4f84c4ed599.999989498 CELO0.000010502
0x85909ba03833016d255c2e03335864884f021b0da5cc3f65de60112fb8c4267cTransfer*152921662022-09-25 18:00:0535 mins ago0x8ff45c82bdef5b123954c0f606e968c254afb701 IN 0xf6436829cf96ea0f8bc49d300c536fcc4f84c4ed20.39513053661896 CELO0.000010502
0xde9a2f76cab0e5c2a9ee84fab34c2c73ca5780d7ced558f288d23a520a7ad5caTransfer152921552022-09-25 17:59:1036 mins ago0xf6436829cf96ea0f8bc49d300c536fcc4f84c4edOUT0xfcc3c257a1554521fca9d05a199152731bb239e81 CELO0.0000105
0xa2b92b193b36c6139ad5b6cd473f715aa2b8ea297524643f31895a6789724190Transfer152920982022-09-25 17:54:2541 mins ago0xf6436829cf96ea0f8bc49d300c536fcc4f84c4edOUT0xb7cb8dd855f75783eefaa2b50d269f1019fcc6cf5.82029491 CELO0.0000105
0xebac7f5be4d62586296a24096fd07db6b979cc201b93090074f7b1ae53b5e926Transfer152919212022-09-25 17:39:4056 mins ago0xf6436829cf96ea0f8bc49d300c536fcc4f84c4edOUT0xf92bca0df53cad5eab6c7a3155e6fe8ac176a7f21.9289929 CELO0.0000105
0x3fd74511a49614e9f172dc593415454af0e5d05450efc09c35510eccf2298faeTransfer152918062022-09-25 17:30:051 hr 5 mins ago0xf11300696cdab1524e63a454c36e1970a2db02b9 IN 0xf6436829cf96ea0f8bc49d300c536fcc4f84c4ed899.999567 CELO0.0000105
0x818da539aa16c752c1a7aaf969a9251af20bc7382745064a8b4abd19b077bfbdTransfer*152918062022-09-25 17:30:051 hr 5 mins ago0x9bce07fe4afca2acae6cd757d27e0d67d16f6f66 IN 0xf6436829cf96ea0f8bc49d300c536fcc4f84c4ed499.999989498 CELO0.000010502
0x7428cc1119827786b4d83a1a0a1c0422091609185a6f47943c0a17376f43a080Transfer152917202022-09-25 17:22:551 hr 12 mins ago0xf6436829cf96ea0f8bc49d300c536fcc4f84c4edOUT0x6819d5ae3d9c8981135226960aab9a53bd7b742c65.0339 CELO0.0000105
0x0400a8d4295ea983d388a99fc8e9d372929920eb3b63459ed5a9c14f8c5b498eTransfer152916672022-09-25 17:18:301 hr 17 mins ago0xf6436829cf96ea0f8bc49d300c536fcc4f84c4edOUT0x602bcc63319ad0db27aab355a57057a60180a15336.95512575 CELO0.0000105
0x11417a7c9f99750208a953759357d0087c7b2c1d7cf1f69ef1405cf763f506d7Transfer*152916262022-09-25 17:15:051 hr 20 mins ago0xabfab8a88debc8310a3e40c77d931805df6a6a1a IN 0xf6436829cf96ea0f8bc49d300c536fcc4f84c4ed51.759740935061007 CELO0.000010502
0x7de6aa55a463db4604f1072c98aca42b8591b5e756d767447ca21bcd054379b4Transfer152916262022-09-25 17:15:051 hr 20 mins ago0xd504a1e8bd36bd551ff8b18a02eb0aa92928fd38 IN 0xf6436829cf96ea0f8bc49d300c536fcc4f84c4ed76.198746 CELO0.0000105
0xf59f813e48486803246f73255a3cb7ea35a1ff8c92ae12ea95653e8a300f0701Transfer152915042022-09-25 17:04:551 hr 30 mins ago0xf6436829cf96ea0f8bc49d300c536fcc4f84c4edOUT0x4c9c42dcc8062528d87266be769bc21d9a26bdcc1,198.799 CELO0.0000105
0x62b2261e5fd9d1ec8c6e1dd3dbc63ffaf83162dbc89641da3fe6585b30ab2feeTransfer152914922022-09-25 17:03:551 hr 31 mins ago0xf6436829cf96ea0f8bc49d300c536fcc4f84c4edOUT0xf9ce8ea4fac0634ace5e2da0a78116d5039b8d6a33.92268259 CELO0.0000105
0xf6fef791912b51004b58e0989cabef5a046dab659b3ba2d0d7605050eddf1b07Transfer152914672022-09-25 17:01:501 hr 34 mins ago0xf6436829cf96ea0f8bc49d300c536fcc4f84c4edOUT0x4c9c42dcc8062528d87266be769bc21d9a26bdcc199.799 CELO0.0000105
0x169c47c62a1eec65347efb16b29dceae1267b41c5b50f247fe6fc63930ef1f2fTransfer*152914482022-09-25 17:00:151 hr 35 mins ago0x8196ff03d3831a285606c7d551b0ec21a8e471e3 IN 0xf6436829cf96ea0f8bc49d300c536fcc4f84c4ed31.411062618 CELO0.000010502
0x3780102da52f89f1257fcb4e4bfcc9049b9303ec948f4a28ef8ad949ff18294aTransfer*152914472022-09-25 17:00:101 hr 35 mins ago0x0e99cb5351d4b0970ac041848df3ea54f10b0362 IN 0xf6436829cf96ea0f8bc49d300c536fcc4f84c4ed43.827796994689139 CELO0.000010502
0x44af3b9c0a49883c80b54e492272e77620b54fe3ee3ee77b5ee2610456979b05Transfer152913602022-09-25 16:52:551 hr 42 mins ago0xf6436829cf96ea0f8bc49d300c536fcc4f84c4edOUT0xad6764b247634e8e809d6cd953507091d6bb70971 CELO0.0000105
0xce5bfd4ac90f2da356db14a35d34b77b5ac06784d3d38be9361a1b6ce88178bbTransfer152912582022-09-25 16:44:251 hr 51 mins ago0xf6436829cf96ea0f8bc49d300c536fcc4f84c4edOUT0x8646e3cbc21598cac844c5656b2bc634b591f56967.399 CELO0.0000105
0xd2e8773263e93c44c0e5c01d92ce7e43fbbe02d16acdb146171d142e8a07be68Transfer152912352022-09-25 16:42:301 hr 53 mins ago0xf6436829cf96ea0f8bc49d300c536fcc4f84c4edOUT0x3bc40c0a93b47eedb3fa8ffc10dcc64b973eb51c1 CELO0.0000105
0x69253f16854b0f7301ba0daefa40d9eed1a270b01229882629170cebbe42532dTransfer152911082022-09-25 16:31:552 hrs 3 mins ago0xf6436829cf96ea0f8bc49d300c536fcc4f84c4edOUT0x0000cb1bfb3e9ae96ef4f5f82d06808f363a1fd80.01915736 CELO0.0000105
0x12556613cc1d866fec8dad33a4dfc33fdc90532160e98e578cbf1ab02def6e09Transfer*152910882022-09-25 16:30:152 hrs 5 mins ago0x22b2ed0f296f87e3a6f11b8901c19805e4886cfd IN 0xf6436829cf96ea0f8bc49d300c536fcc4f84c4ed14.07120945 CELO0.000010502
0xc7238ac2fbd3ff56ba78c85be7bfb2251f3865f6a4ec6f0fb9023ecd06b4c7e5Transfer*152910872022-09-25 16:30:102 hrs 5 mins ago0x9bce07fe4afca2acae6cd757d27e0d67d16f6f66 IN 0xf6436829cf96ea0f8bc49d300c536fcc4f84c4ed199.999989498 CELO0.000010502
[ Download CSV Export 
Parent Txn Hash Block From To Value
Loading

Contract Name:
0

Compiler Version
0

Optimization Enabled:
0

Other Settings:
-NA-
Block Transaction Gas Used Reward
Age Block Fee Address BC Fee Address Voting Power Jailed Incoming
Block Uncle Number Difficulty Gas Used Reward
Loading
Make sure to use the "Vote Down" button for any spammy posts, and the "Vote Up" for interesting conversations.